Zurück zum Katalog

STARLINK-1598

AktivKommunikationVLEO
NORAD 46160·PAYLOAD·🇺🇸 United States

Gestartet Aug 18, 2020 von Cape Canaveral Space Force Station

Loading…

Nächste Überflüge (nächste 24 Stunden)

TLE

AktuellSource: CelesTrak SupGP

Epoche: Sep 14, 2026, 15:34 UTC

1 46160C 20057AV  26257.64909722  .05251800  00000+0  12416-2 0  2575
2 46160  53.0220  61.9301 0011749 292.1658 276.7411 16.28647806    13

Verfolge STARLINK-1598 in Echtzeit mit AllMySat

Download on the App Store